| time (UTC) | temp C | wind direction | speed KPH | gust KPH | rain 1hr cm | rain 24hr cm | rain mn cm | humidity % | barometer mb |
| 20260507155828 | 14 | 24 | 4.8 | 12.9 | 0.00 | 0.00 | 0.00 | 54 | 1014.3 |
| 20260507155326 | 15 | 5 | 6.4 | 12.9 | 0.00 | 0.00 | 0.00 | 53 | 1014.4 |
| 20260507154818 | 15 | 22 | 4.8 | 8.0 | 0.00 | 0.00 | 0.00 | 54 | 1014.5 |
| 20260507154330 | 14 | 26 | 3.2 | 8.0 | 0.00 | 0.00 | 0.00 | 54 | 1014.5 |
| 20260507153827 | 14 | 5 | 4.8 | 8.0 | 0.00 | 0.00 | 0.00 | 54 | 1014.4 |
| 20260507153338 | 13 | 34 | 3.2 | 6.4 | 0.00 | 0.00 | 0.00 | 55 | 1014.4 |
| 20260507152830 | 13 | 28 | 3.2 | 6.4 | 0.00 | 0.00 | 0.00 | 56 | 1014.4 |
| 20260507152322 | 13 | 28 | 3.2 | 6.4 | 0.00 | 0.00 | 0.00 | 61 | 1014.4 |
| 20260507151814 | 13 | 85 | 1.6 | 3.2 | 0.00 | 0.00 | 0.00 | 62 | 1014.3 |
| 20260507151323 | 13 | 85 | 1.6 | 4.8 | 0.00 | 0.00 | 0.00 | 63 | 1014.3 |
| 20260507150814 | 13 | 85 | 3.2 | 4.8 | 0.00 | 0.00 | 0.00 | 60 | 1014.3 |
| 20260507150324 | 13 | 85 | 0.0 | 3.2 | 0.00 | 0.00 | 0.00 | 60 | 1014.3 |
| 20260507145836 | 12 | 85 | 0.0 | 3.2 | 0.00 | 0.00 | 0.00 | 63 | 1014.1 |
| 20260507145327 | 12 | 85 | 0.0 | 4.8 | 0.00 | 0.00 | 0.00 | 63 | 1014.0 |
| 20260507144816 | 12 | 85 | 3.2 | 4.8 | 0.00 | 0.00 | 0.00 | 57 | 1014.1 |
| 20260507144328 | 13 | 85 | 1.6 | 4.8 | 0.00 | 0.00 | 0.00 | 57 | 1014.0 |
| 20260507143823 | 13 | 85 | 3.2 | 4.8 | 0.00 | 0.00 | 0.00 | 56 | 1014.0 |
| 20260507143314 | 13 | 85 | 1.6 | 4.8 | 0.00 | 0.00 | 0.00 | 56 | 1013.8 |
| 20260507142827 | 12 | 85 | 3.2 | 4.8 | 0.00 | 0.00 | 0.00 | 59 | 1013.9 |
| 20260507142319 | 12 | 85 | 0.0 | 3.2 | 0.00 | 0.00 | 0.00 | 58 | 1013.7 |
| 20260507141831 | 12 | 85 | 0.0 | 4.8 | 0.00 | 0.00 | 0.00 | 58 | 1013.7 |
| 20260507141324 | 12 | 85 | 3.2 | 4.8 | 0.00 | 0.00 | 0.00 | 58 | 1013.7 |
| 20260507140817 | 12 | 85 | 0.0 | 4.8 | 0.00 | 0.00 | 0.00 | 58 | 1013.7 |
| 20260507140344 | 12 | 85 | 1.6 | 4.8 | 0.00 | 0.00 | 0.00 | 57 | 1013.7 |
| 20260507135835 | 12 | 74 | 0.0 | 4.8 | 0.00 | 0.00 | 0.00 | 57 | 1013.6 |
| 20260507135351 | 12 | 74 | 1.6 | 4.8 | 0.00 | 0.00 | 0.00 | 58 | 1013.6 |
| 20260507134819 | 12 | 74 | 3.2 | 6.4 | 0.00 | 0.00 | 0.00 | 58 | 1013.5 |
| 20260507134335 | 12 | 132 | 3.2 | 6.4 | 0.00 | 0.00 | 0.00 | 56 | 1013.4 |
| 20260507133826 | 12 | 38 | 3.2 | 8.0 | 0.00 | 0.00 | 0.00 | 55 | 1013.4 |
| 20260507133318 | 12 | 50 | 3.2 | 4.8 | 0.00 | 0.00 | 0.00 | 55 | 1013.5 |
| 20260507132849 | 12 | 76 | 3.2 | 4.8 | 0.00 | 0.00 | 0.00 | 55 | 1013.4 |
| 20260507132341 | 12 | 147 | 0.0 | 4.8 | 0.00 | 0.00 | 0.00 | 55 | 1013.4 |
| 20260507131832 | 12 | 158 | 1.6 | 6.4 | 0.00 | 0.00 | 0.00 | 53 | 1013.3 |
| 20260507131323 | 12 | 189 | 3.2 | 6.4 | 0.00 | 0.00 | 0.00 | 52 | 1013.3 |
| 20260507130815 | 11 | 165 | 3.2 | 8.0 | 0.00 | 0.00 | 0.00 | 57 | 1013.3 |
| 20260507125826 | 11 | 145 | 0.0 | 4.8 | 0.00 | 0.00 | 0.00 | 55 | 1013.3 |
| 20260507125318 | 11 | 145 | 1.6 | 6.4 | 0.00 | 0.00 | 0.00 | 54 | 1013.3 |
| 20260507124910 | 11 | 145 | 3.2 | 12.9 | 0.00 | 0.00 | 0.00 | 55 | 1013.4 |
| 20260507124318 | 11 | 144 | 8.0 | 12.9 | 0.00 | 0.00 | 0.00 | 56 | 1013.3 |
| 20260507123815 | 11 | 96 | 4.8 | 6.4 | 0.00 | 0.00 | 0.00 | 54 | 1013.3 |
| 20260507123327 | 11 | 173 | 1.6 | 9.7 | 0.00 | 0.00 | 0.00 | 52 | 1013.3 |
| 20260507122900 | 11 | 223 | 6.4 | 11.3 | 0.00 | 0.00 | 0.00 | 52 | 1013.2 |
| 20260507122352 | 12 | 216 | 8.0 | 11.3 | 0.00 | 0.00 | 0.00 | 53 | 1013.2 |
| 20260507121824 | 12 | 266 | 1.6 | 8.0 | 0.00 | 0.00 | 0.00 | 52 | 1013.1 |
| 20260507121316 | 12 | 70 | 4.8 | 6.4 | 0.00 | 0.00 | 0.00 | 53 | 1013.1 |
| 20260507120848 | 12 | 171 | 6.4 | 8.0 | 0.00 | 0.00 | 0.00 | 53 | 1013.0 |
| 20260507120314 | 12 | 98 | 4.8 | 6.4 | 0.00 | 0.00 | 0.00 | 51 | 1013.0 |
| 20260507115826 | 12 | 183 | 0.0 | 8.0 | 0.00 | 0.00 | 0.00 | 51 | 1013.1 |
| 20260507115338 | 12 | 162 | 4.8 | 14.5 | 0.00 | 0.00 | 0.00 | 51 | 1012.9 |
| 20260507114829 | 12 | 189 | 9.7 | 14.5 | 0.00 | 0.00 | 0.00 | 51 | 1013.0 |
| 20260507114322 | 12 | 19 | 1.6 | 6.4 | 0.00 | 0.00 | 0.00 | 52 | 1013.1 |
| 20260507113333 | 12 | 47 | 1.6 | 4.8 | 0.00 | 0.00 | 0.00 | 52 | 1013.0 |
| 20260507112826 | 12 | 47 | 1.6 | 6.4 | 0.00 | 0.00 | 0.00 | 51 | 1012.9 |
| 20260507112317 | 13 | 19 | 4.8 | 6.4 | 0.00 | 0.00 | 0.00 | 51 | 1012.9 |
| 20260507111829 | 13 | 267 | 1.6 | 4.8 | 0.00 | 0.00 | 0.00 | 50 | 1012.8 |
| 20260507111320 | 13 | 26 | 3.2 | 4.8 | 0.00 | 0.00 | 0.00 | 49 | 1012.8 |
| 20260507110831 | 13 | 153 | 0.0 | 16.1 | 0.00 | 0.00 | 0.00 | 49 | 1012.8 |
| 20260507105823 | 13 | 167 | 4.8 | 8.0 | 0.00 | 0.00 | 0.00 | 49 | 1012.7 |
| 20260507105317 | 13 | 138 | 4.8 | 9.7 | 0.00 | 0.00 | 0.00 | 48 | 1012.8 |
| 20260507104831 | 13 | 164 | 8.0 | 9.7 | 0.00 | 0.00 | 0.00 | 49 | 1012.7 |
| 20260507104327 | 13 | 189 | 8.0 | 9.7 | 0.00 | 0.00 | 0.00 | 48 | 1012.8 |
| 20260507103819 | 13 | 155 | 8.0 | 9.7 | 0.00 | 0.00 | 0.00 | 50 | 1012.8 |
| 20260507103336 | 13 | 204 | 0.0 | 8.0 | 0.00 | 0.00 | 0.00 | 49 | 1012.9 |
| 20260507102323 | 13 | 149 | 4.8 | 9.7 | 0.00 | 0.00 | 0.00 | 51 | 1012.8 |
| 20260507101815 | 13 | 167 | 4.8 | 8.0 | 0.00 | 0.00 | 0.00 | 50 | 1012.8 |
| 20260507100828 | 14 | 126 | 3.2 | 11.3 | 0.00 | 0.00 | 0.00 | 48 | 1012.9 |
| 20260507100315 | 14 | 130 | 3.2 | 6.4 | 0.00 | 0.00 | 0.00 | 51 | 1012.9 |
| 20260507095827 | 14 | 97 | 3.2 | 6.4 | 0.00 | 0.00 | 0.00 | 50 | 1012.9 |
| 20260507095320 | 14 | 259 | 0.0 | 6.4 | 0.00 | 0.00 | 0.00 | 48 | 1012.8 |
| 20260507094814 | 14 | 166 | 4.8 | 6.4 | 0.00 | 0.00 | 0.00 | 48 | 1012.7 |
| 20260507094326 | 14 | 207 | 1.6 | 9.7 | 0.00 | 0.00 | 0.00 | 46 | 1012.8 |
| 20260507093819 | 14 | 206 | 3.2 | 14.5 | 0.00 | 0.00 | 0.00 | 47 | 1012.7 |
| 20260507093329 | 14 | 190 | 9.7 | 16.1 | 0.00 | 0.00 | 0.00 | 47 | 1012.7 |
| 20260507092826 | 15 | 219 | 8.0 | 11.3 | 0.00 | 0.00 | 0.00 | 47 | 1012.8 |
| 20260507092318 | 15 | 242 | 3.2 | 4.8 | 0.00 | 0.00 | 0.00 | 48 | 1012.5 |
| 20260507091827 | 15 | 242 | 0.0 | 3.2 | 0.00 | 0.00 | 0.00 | 48 | 1012.7 |
| 20260507091318 | 15 | 242 | 3.2 | 4.8 | 0.00 | 0.00 | 0.00 | 47 | 1012.7 |
| 20260507090829 | 15 | 215 | 0.0 | 6.4 | 0.00 | 0.00 | 0.00 | 46 | 1012.7 |
| 20260507090321 | 15 | 215 | 0.0 | 12.9 | 0.00 | 0.00 | 0.00 | 46 | 1012.6 |
| 20260507085833 | 15 | 173 | 8.0 | 22.5 | 0.00 | 0.00 | 0.00 | 49 | 1012.6 |
| 20260507085320 | 15 | 227 | 14.5 | 22.5 | 0.00 | 0.00 | 0.00 | 44 | 1012.6 |
| 20260507084854 | 15 | 212 | 16.1 | 24.1 | 0.00 | 0.00 | 0.00 | 44 | 1012.6 |
| 20260507084330 | 15 | 210 | 16.1 | 22.5 | 0.00 | 0.00 | 0.00 | 45 | 1012.6 |
| 20260507083824 | 15 | 235 | 14.5 | 24.1 | 0.00 | 0.00 | 0.00 | 46 | 1012.6 |
| 20260507083317 | 15 | 221 | 17.7 | 24.1 | 0.00 | 0.00 | 0.00 | 45 | 1012.6 |
| 20260507082827 | 15 | 198 | 16.1 | 17.7 | 0.00 | 0.00 | 0.00 | 46 | 1012.6 |
| 20260507082319 | 15 | 204 | 8.0 | 12.9 | 0.00 | 0.00 | 0.00 | 45 | 1012.7 |
| 20260507081831 | 16 | 173 | 8.0 | 12.9 | 0.00 | 0.00 | 0.00 | 45 | 1012.7 |
| 20260507080823 | 16 | 269 | 1.6 | 9.7 | 0.00 | 0.00 | 0.00 | 46 | 1012.7 |
| 20260507080331 | 16 | 199 | 1.6 | 19.3 | 0.00 | 0.00 | 0.00 | 46 | 1012.6 |
| 20260507075824 | 16 | 213 | 11.3 | 22.5 | 0.00 | 0.00 | 0.00 | 45 | 1012.5 |
| 20260507075320 | 16 | 202 | 17.7 | 22.5 | 0.00 | 0.00 | 0.00 | 45 | 1012.4 |
| 20260507074831 | 16 | 200 | 14.5 | 19.3 | 0.00 | 0.00 | 0.00 | 46 | 1012.5 |
| 20260507074323 | 16 | 76 | 3.2 | 14.5 | 0.00 | 0.00 | 0.00 | 47 | 1012.6 |
| 20260507073315 | 17 | 134 | 14.5 | 20.9 | 0.00 | 0.00 | 0.00 | 47 | 1012.5 |
| 20260507072828 | 17 | 135 | 1.6 | 8.0 | 0.00 | 0.00 | 0.00 | 43 | 1012.7 |
| 20260507072340 | 17 | 351 | 4.8 | 8.0 | 0.00 | 0.00 | 0.00 | 44 | 1012.8 |
| 20260507071830 | 17 | 156 | 3.2 | 16.1 | 0.00 | 0.00 | 0.00 | 38 | 1012.8 |
| 20260507071324 | 16 | 213 | 6.4 | 16.1 | 0.00 | 0.00 | 0.00 | 42 | 1012.8 |
| 20260507070836 | 16 | 153 | 8.0 | 12.9 | 0.00 | 0.00 | 0.00 | 49 | 1013.0 |
| 20260507070326 | 16 | 125 | 9.7 | 12.9 | 0.00 | 0.00 | 0.00 | 47 | 1013.0 |
| 20260507065822 | 16 | 135 | 4.8 | 6.4 | 0.00 | 0.00 | 0.00 | 47 | 1013.0 |
| 20260507065335 | 16 | 128 | 1.6 | 6.4 | 0.00 | 0.00 | 0.00 | 47 | 1013.0 |
| 20260507064327 | 17 | 180 | 6.4 | 16.1 | 0.00 | 0.00 | 0.00 | 47 | 1012.8 |
| 20260507063819 | 16 | 159 | 11.3 | 16.1 | 0.00 | 0.00 | 0.00 | 47 | 1012.5 |
| 20260507063351 | 16 | 160 | 11.3 | 16.1 | 0.00 | 0.00 | 0.00 | 48 | 1012.5 |
| 20260507062820 | 16 | 146 | 12.9 | 16.1 | 0.00 | 0.00 | 0.00 | 48 | 1012.5 |
| 20260507062331 | 17 | 185 | 9.7 | 12.9 | 0.00 | 0.00 | 0.00 | 48 | 1012.5 |
| 20260507061843 | 17 | 196 | 8.0 | 9.7 | 0.00 | 0.00 | 0.00 | 47 | 1012.5 |
| 20260507061333 | 17 | 161 | 6.4 | 9.7 | 0.00 | 0.00 | 0.00 | 46 | 1012.6 |
| 20260507060825 | 17 | 313 | 1.6 | 14.5 | 0.00 | 0.00 | 0.00 | 45 | 1012.5 |
| 20260507060314 | 18 | 122 | 4.8 | 14.5 | 0.00 | 0.00 | 0.00 | 43 | 1012.6 |
| 20260507055832 | 18 | 142 | 8.0 | 12.9 | 0.00 | 0.00 | 0.00 | 42 | 1012.6 |
| 20260507055345 | 18 | 134 | 6.4 | 12.9 | 0.00 | 0.00 | 0.00 | 40 | 1012.7 |
| 20260507054816 | 18 | 150 | 9.7 | 16.1 | 0.00 | 0.00 | 0.00 | 43 | 1012.7 |
| 20260507054328 | 18 | 149 | 12.9 | 25.7 | 0.00 | 0.00 | 0.00 | 44 | 1012.8 |
| 20260507053820 | 18 | 153 | 16.1 | 22.5 | 0.00 | 0.00 | 0.00 | 44 | 1012.7 |
| 20260507053353 | 18 | 157 | 14.5 | 22.5 | 0.00 | 0.00 | 0.00 | 43 | 1012.8 |
| 20260507052820 | 18 | 152 | 11.3 | 19.3 | 0.00 | 0.00 | 0.00 | 41 | 1012.8 |
| 20260507052352 | 18 | 109 | 11.3 | 22.5 | 0.00 | 0.00 | 0.00 | 37 | 1012.6 |
| 20260507051843 | 18 | 164 | 11.3 | 17.7 | 0.00 | 0.00 | 0.00 | 39 | 1012.7 |
| 20260507051314 | 17 | 184 | 12.9 | 16.1 | 0.00 | 0.00 | 0.00 | 43 | 1012.7 |
| 20260507050827 | 17 | 192 | 8.0 | 24.1 | 0.00 | 0.00 | 0.00 | 42 | 1012.8 |
| 20260507050343 | 17 | 201 | 9.7 | 24.1 | 0.00 | 0.00 | 0.00 | 44 | 1012.8 |
| 20260507045815 | 17 | 170 | 3.2 | 16.1 | 0.00 | 0.00 | 0.00 | 39 | 1012.8 |
| 20260507045326 | 17 | 205 | 11.3 | 16.1 | 0.00 | 0.00 | 0.00 | 46 | 1013.0 |
| 20260507044818 | 17 | 348 | 1.6 | 6.4 | 0.00 | 0.00 | 0.00 | 47 | 1013.1 |
| 20260507044330 | 17 | 288 | 4.8 | 11.3 | 0.00 | 0.00 | 0.00 | 45 | 1013.2 |
| 20260507043822 | 17 | 160 | 6.4 | 16.1 | 0.00 | 0.00 | 0.00 | 46 | 1013.1 |
| 20260507042815 | 17 | 123 | 8.0 | 12.9 | 0.00 | 0.00 | 0.00 | 48 | 1013.2 |
| 20260507042347 | 17 | 184 | 6.4 | 17.7 | 0.00 | 0.00 | 0.00 | 47 | 1013.3 |
| 20260507041820 | 18 | 138 | 11.3 | 20.9 | 0.00 | 0.00 | 0.00 | 45 | 1013.2 |
| 20260507041353 | 18 | 146 | 16.1 | 22.5 | 0.00 | 0.00 | 0.00 | 46 | 1013.2 |
| 20260507040824 | 18 | 136 | 19.3 | 24.1 | 0.00 | 0.00 | 0.00 | 46 | 1013.1 |
| 20260507040315 | 18 | 154 | 17.7 | 24.1 | 0.00 | 0.00 | 0.00 | 46 | 1013.0 |
| 20260507035827 | 18 | 123 | 14.5 | 22.5 | 0.00 | 0.00 | 0.00 | 46 | 1013.0 |
| 20260507035319 | 18 | 159 | 19.3 | 27.4 | 0.00 | 0.00 | 0.00 | 46 | 1013.0 |
| 20260507034832 | 18 | 163 | 20.9 | 29.0 | 0.00 | 0.00 | 0.00 | 46 | 1012.9 |
| 20260507034324 | 18 | 134 | 20.9 | 29.0 | 0.00 | 0.00 | 0.00 | 46 | 1012.8 |
| 20260507033814 | 18 | 166 | 22.5 | 27.4 | 0.00 | 0.00 | 0.00 | 46 | 1012.7 |
| 20260507033328 | 18 | 203 | 17.7 | 33.8 | 0.00 | 0.00 | 0.00 | 45 | 1012.7 |
| 20260507032821 | 18 | 154 | 20.9 | 33.8 | 0.00 | 0.00 | 0.00 | 44 | 1012.6 |
| 20260507032353 | 19 | 142 | 16.1 | 24.1 | 0.00 | 0.00 | 0.00 | 44 | 1012.6 |
| 20260507031823 | 19 | 152 | 12.9 | 19.3 | 0.00 | 0.00 | 0.00 | 44 | 1012.5 |
| 20260507031319 | 19 | 136 | 8.0 | 29.0 | 0.00 | 0.00 | 0.00 | 43 | 1012.5 |
| 20260507030832 | 18 | 157 | 11.3 | 29.0 | 0.00 | 0.00 | 0.00 | 45 | 1012.6 |
| 20260507030324 | 18 | 116 | 16.1 | 25.7 | 0.00 | 0.00 | 0.00 | 45 | 1012.6 |
| 20260507025816 | 18 | 188 | 14.5 | 22.5 | 0.00 | 0.00 | 0.00 | 44 | 1012.5 |
| 20260507025329 | 18 | 150 | 11.3 | 22.5 | 0.00 | 0.00 | 0.00 | 44 | 1012.6 |
| 20260507024822 | 19 | 159 | 14.5 | 24.1 | 0.00 | 0.00 | 0.00 | 44 | 1012.5 |
| 20260507024315 | 19 | 137 | 14.5 | 27.4 | 0.00 | 0.00 | 0.00 | 44 | 1012.6 |
| 20260507023829 | 18 | 40 | 9.7 | 27.4 | 0.00 | 0.00 | 0.00 | 44 | 1012.5 |
| 20260507023325 | 18 | 148 | 19.3 | 29.0 | 0.00 | 0.00 | 0.00 | 45 | 1012.4 |
| 20260507022818 | 19 | 133 | 19.3 | 25.7 | 0.00 | 0.00 | 0.00 | 44 | 1012.4 |
| 20260507022332 | 18 | 148 | 20.9 | 29.0 | 0.00 | 0.00 | 0.00 | 45 | 1012.4 |
| 20260507021825 | 19 | 132 | 19.3 | 35.4 | 0.00 | 0.00 | 0.00 | 44 | 1012.4 |
| 20260507021318 | 19 | 171 | 22.5 | 35.4 | 0.00 | 0.00 | 0.00 | 44 | 1012.3 |
| 20260507020830 | 19 | 171 | 27.4 | 33.8 | 0.00 | 0.00 | 0.00 | 44 | 1012.2 |
| 20260507020340 | 19 | 140 | 22.5 | 32.2 | 0.00 | 0.00 | 0.00 | 44 | 1012.2 |
| 20260507015832 | 19 | 183 | 22.5 | 32.2 | 0.00 | 0.00 | 0.00 | 44 | 1012.2 |
| 20260507015324 | 19 | 165 | 25.7 | 32.2 | 0.00 | 0.00 | 0.00 | 43 | 1012.1 |
| 20260507014841 | 19 | 169 | 20.9 | 35.4 | 0.00 | 0.00 | 0.00 | 44 | 1012.1 |
| 20260507014332 | 19 | 152 | 24.1 | 35.4 | 0.00 | 0.00 | 0.00 | 43 | 1012.2 |
| 20260507013823 | 19 | 157 | 24.1 | 30.6 | 0.00 | 0.00 | 0.00 | 43 | 1012.3 |
| 20260507013315 | 19 | 174 | 20.9 | 37.0 | 0.00 | 0.00 | 0.00 | 43 | 1012.2 |
| 20260507012829 | 20 | 143 | 20.9 | 33.8 | 0.00 | 0.00 | 0.00 | 43 | 1012.3 |
| 20260507012320 | 20 | 162 | 20.9 | 33.8 | 0.00 | 0.00 | 0.00 | 42 | 1012.3 |
| 20260507011813 | 20 | 198 | 24.1 | 33.8 | 0.00 | 0.00 | 0.00 | 42 | 1012.3 |
| 20260507011325 | 20 | 194 | 22.5 | 32.2 | 0.00 | 0.00 | 0.00 | 42 | 1012.3 |
| 20260507010821 | 20 | 205 | 20.9 | 35.4 | 0.00 | 0.00 | 0.00 | 42 | 1012.2 |
| 20260507010313 | 20 | 174 | 24.1 | 45.1 | 0.00 | 0.00 | 0.00 | 43 | 1012.2 |
| 20260507005825 | 20 | 151 | 20.9 | 45.1 | 0.00 | 0.00 | 0.00 | 42 | 1012.1 |
| 20260507005319 | 20 | 183 | 24.1 | 48.3 | 0.00 | 0.00 | 0.00 | 41 | 1011.9 |
| 20260507004851 | 20 | 157 | 24.1 | 43.5 | 0.00 | 0.00 | 0.00 | 42 | 1012.1 |
| 20260507004321 | 20 | 172 | 22.5 | 35.4 | 0.00 | 0.00 | 0.00 | 42 | 1012.2 |
| 20260507003813 | 20 | 189 | 22.5 | 45.1 | 0.00 | 0.00 | 0.00 | 42 | 1012.0 |
| 20260507003324 | 20 | 180 | 22.5 | 45.1 | 0.00 | 0.00 | 0.00 | 43 | 1012.0 |
| 20260507002835 | 20 | 157 | 20.9 | 35.4 | 0.00 | 0.00 | 0.00 | 42 | 1012.0 |
| 20260507002326 | 20 | 215 | 20.9 | 37.0 | 0.00 | 0.00 | 0.00 | 41 | 1012.1 |
| 20260507001823 | 20 | 196 | 24.1 | 38.6 | 0.00 | 0.00 | 0.00 | 42 | 1012.0 |
| 20260507001354 | 20 | 180 | 24.1 | 41.8 | 0.00 | 0.00 | 0.00 | 41 | 1012.1 |
| 20260507000824 | 20 | 182 | 25.7 | 41.8 | 0.00 | 0.00 | 0.00 | 42 | 1012.1 |
| 20260507000314 | 20 | 192 | 19.3 | 37.0 | 0.00 | 0.00 | 0.00 | 40 | 1012.1 |
| 20260506235825 | 20 | 199 | 19.3 | 37.0 | 0.00 | 0.00 | 0.00 | 40 | 1012.1 |
| 20260506235318 | 20 | 182 | 16.1 | 35.4 | 0.00 | 0.00 | 0.00 | 43 | 1011.9 |
| 20260506234830 | 20 | 208 | 22.5 | 41.8 | 0.00 | 0.00 | 0.00 | 40 | 1011.9 |
| 20260506233822 | 21 | 198 | 19.3 | 37.0 | 0.00 | 0.00 | 0.00 | 40 | 1012.0 |
| 20260506233314 | 21 | 136 | 19.3 | 33.8 | 0.00 | 0.00 | 0.00 | 44 | 1012.1 |
| 20260506232831 | 20 | 171 | 17.7 | 33.8 | 0.00 | 0.00 | 0.00 | 41 | 1012.1 |
| 20260506232322 | 20 | 163 | 22.5 | 33.8 | 0.00 | 0.00 | 0.00 | 40 | 1012.1 |
| 20260506231832 | 21 | 189 | 19.3 | 32.2 | 0.00 | 0.00 | 0.00 | 40 | 1012.1 |
| 20260506231324 | 21 | 190 | 17.7 | 33.8 | 0.00 | 0.00 | 0.00 | 40 | 1012.1 |
| 20260506230856 | 20 | 158 | 19.3 | 40.2 | 0.00 | 0.00 | 0.00 | 41 | 1012.2 |
| 20260506230814 | 20 | 158 | 19.3 | 40.2 | 0.00 | 0.00 | 0.00 | 41 | 1012.2 |
| 20260506230325 | 20 | 153 | 24.1 | 40.2 | 0.00 | 0.00 | 0.00 | 40 | 1012.3 |
| 20260506225839 | 20 | 155 | 16.1 | 33.8 | 0.00 | 0.00 | 0.00 | 40 | 1012.4 |
| 20260506225331 | 20 | 228 | 20.9 | 33.8 | 0.00 | 0.00 | 0.00 | 39 | 1012.5 |
| 20260506224824 | 20 | 190 | 19.3 | 33.8 | 0.00 | 0.00 | 0.00 | 39 | 1012.5 |
| 20260506224317 | 20 | 190 | 17.7 | 32.2 | 0.00 | 0.00 | 0.00 | 40 | 1012.4 |
| 20260506223827 | 20 | 210 | 24.1 | 35.4 | 0.00 | 0.00 | 0.00 | 40 | 1012.2 |
| 20260506223324 | 20 | 155 | 22.5 | 33.8 | 0.00 | 0.00 | 0.00 | 38 | 1012.4 |
| 20260506222816 | 20 | 171 | 17.7 | 33.8 | 0.00 | 0.00 | 0.00 | 39 | 1012.6 |
| 20260506222330 | 20 | 144 | 19.3 | 33.8 | 0.00 | 0.00 | 0.00 | 37 | 1012.6 |
| 20260506221822 | 20 | 141 | 19.3 | 40.2 | 0.00 | 0.00 | 0.00 | 39 | 1012.8 |
| 20260506221332 | 20 | 164 | 24.1 | 41.8 | 0.00 | 0.00 | 0.00 | 37 | 1012.8 |
| 20260506220824 | 20 | 176 | 20.9 | 45.1 | 0.00 | 0.00 | 0.00 | 38 | 1012.8 |
| 20260506220331 | 20 | 162 | 27.4 | 45.1 | 0.00 | 0.00 | 0.00 | 37 | 1012.8 |
| 20260506215822 | 20 | 157 | 22.5 | 37.0 | 0.00 | 0.00 | 0.00 | 37 | 1012.8 |
| 20260506215319 | 20 | 175 | 24.1 | 37.0 | 0.00 | 0.00 | 0.00 | 37 | 1013.0 |
| 20260506214830 | 20 | 192 | 25.7 | 46.7 | 0.00 | 0.00 | 0.00 | 38 | 1013.0 |
| 20260506213842 | 20 | 146 | 29.0 | 43.5 | 0.00 | 0.00 | 0.00 | 39 | 1013.0 |
| 20260506213313 | 20 | 202 | 24.1 | 40.2 | 0.00 | 0.00 | 0.00 | 38 | 1013.1 |
| 20260506212845 | 20 | 194 | 24.1 | 45.1 | 0.00 | 0.00 | 0.00 | 37 | 1013.2 |
| 20260506212316 | 20 | 182 | 25.7 | 45.1 | 0.00 | 0.00 | 0.00 | 39 | 1013.4 |
| 20260506211847 | 20 | 206 | 25.7 | 43.5 | 0.00 | 0.00 | 0.00 | 37 | 1013.5 |
| 20260506211315 | 20 | 177 | 27.4 | 43.5 | 0.00 | 0.00 | 0.00 | 37 | 1013.3 |
| 20260506210828 | 20 | 207 | 29.0 | 53.1 | 0.00 | 0.00 | 0.00 | 38 | 1013.2 |
| 20260506210319 | 20 | 146 | 30.6 | 53.1 | 0.00 | 0.00 | 0.00 | 39 | 1013.3 |
| 20260506205831 | 20 | 132 | 30.6 | 46.7 | 0.00 | 0.00 | 0.00 | 36 | 1013.3 |
| 20260506205321 | 20 | 195 | 25.7 | 38.6 | 0.00 | 0.00 | 0.00 | 37 | 1013.8 |
| 20260506204813 | 20 | 174 | 22.5 | 40.2 | 0.00 | 0.00 | 0.00 | 37 | 1013.6 |
| 20260506204324 | 19 | 169 | 27.4 | 41.8 | 0.00 | 0.00 | 0.00 | 38 | 1013.7 |
| 20260506203820 | 19 | 148 | 27.4 | 41.8 | 0.00 | 0.00 | 0.00 | 38 | 1013.7 |
| 20260506203333 | 19 | 155 | 27.4 | 43.5 | 0.00 | 0.00 | 0.00 | 38 | 1013.7 |
| 20260506202829 | 19 | 166 | 24.1 | 38.6 | 0.00 | 0.00 | 0.00 | 39 | 1013.7 |
| 20260506202321 | 19 | 151 | 32.2 | 45.1 | 0.00 | 0.00 | 0.00 | 37 | 1013.8 |
| 20260506201834 | 18 | 188 | 22.5 | 45.1 | 0.00 | 0.00 | 0.00 | 39 | 1013.8 |
| 20260506201325 | 18 | 198 | 27.4 | 45.1 | 0.00 | 0.00 | 0.00 | 40 | 1013.8 |
| 20260506200818 | 18 | 177 | 29.0 | 45.1 | 0.00 | 0.00 | 0.00 | 39 | 1013.7 |
| 20260506200346 | 18 | 146 | 25.7 | 49.9 | 0.00 | 0.00 | 0.00 | 39 | 1013.8 |
| 20260506195818 | 18 | 151 | 24.1 | 41.8 | 0.00 | 0.00 | 0.00 | 39 | 1013.9 |
| 20260506195316 | 18 | 153 | 24.1 | 40.2 | 0.00 | 0.00 | 0.00 | 40 | 1014.0 |
| 20260506194828 | 18 | 151 | 27.4 | 43.5 | 0.00 | 0.00 | 0.00 | 40 | 1013.9 |
| 20260506194342 | 18 | 199 | 27.4 | 43.5 | 0.00 | 0.00 | 0.00 | 39 | 1014.0 |
| 20260506193813 | 18 | 216 | 22.5 | 41.8 | 0.00 | 0.00 | 0.00 | 40 | 1014.0 |
| 20260506193324 | 18 | 155 | 29.0 | 51.5 | 0.00 | 0.00 | 0.00 | 38 | 1014.1 |
| 20260506192817 | 17 | 193 | 25.7 | 51.5 | 0.00 | 0.00 | 0.00 | 40 | 1014.2 |
| 20260506192345 | 17 | 178 | 29.0 | 43.5 | 0.00 | 0.00 | 0.00 | 40 | 1014.1 |
| 20260506191816 | 17 | 155 | 29.0 | 45.1 | 0.00 | 0.00 | 0.00 | 39 | 1014.3 |
| 20260506191328 | 17 | 180 | 25.7 | 45.1 | 0.00 | 0.00 | 0.00 | 41 | 1014.4 |
| 20260506190819 | 17 | 158 | 30.6 | 45.1 | 0.00 | 0.00 | 0.00 | 40 | 1014.3 |
| 20260506190315 | 17 | 201 | 27.4 | 41.8 | 0.00 | 0.00 | 0.00 | 39 | 1014.5 |
| 20260506185826 | 17 | 192 | 29.0 | 45.1 | 0.00 | 0.00 | 0.00 | 39 | 1014.6 |
| 20260506185338 | 17 | 159 | 24.1 | 48.3 | 0.00 | 0.00 | 0.00 | 42 | 1014.6 |
| 20260506184829 | 16 | 176 | 25.7 | 54.7 | 0.00 | 0.00 | 0.00 | 40 | 1014.6 |
| 20260506184320 | 16 | 206 | 29.0 | 54.7 | 0.00 | 0.00 | 0.00 | 40 | 1014.7 |
| 20260506183813 | 16 | 155 | 30.6 | 46.7 | 0.00 | 0.00 | 0.00 | 40 | 1014.4 |
| 20260506183326 | 16 | 191 | 19.3 | 48.3 | 0.00 | 0.00 | 0.00 | 43 | 1014.7 |
| 20260506182817 | 16 | 153 | 29.0 | 48.3 | 0.00 | 0.00 | 0.00 | 41 | 1014.7 |
| 20260506182330 | 16 | 126 | 25.7 | 46.7 | 0.00 | 0.00 | 0.00 | 41 | 1014.7 |
| 20260506181821 | 16 | 186 | 22.5 | 51.5 | 0.00 | 0.00 | 0.00 | 43 | 1014.8 |
| 20260506181317 | 16 | 175 | 27.4 | 53.1 | 0.00 | 0.00 | 0.00 | 41 | 1014.7 |
| 20260506180830 | 16 | 218 | 27.4 | 49.9 | 0.00 | 0.00 | 0.00 | 42 | 1014.7 |
| 20260506180319 | 15 | 176 | 30.6 | 43.5 | 0.00 | 0.00 | 0.00 | 42 | 1014.6 |
| 20260506175850 | 15 | 174 | 30.6 | 59.5 | 0.00 | 0.00 | 0.00 | 42 | 1014.9 |
| 20260506175322 | 15 | 149 | 32.2 | 59.5 | 0.00 | 0.00 | 0.00 | 42 | 1014.8 |
| 20260506174814 | 15 | 143 | 27.4 | 45.1 | 0.00 | 0.00 | 0.00 | 42 | 1014.8 |
| 20260506174346 | 15 | 149 | 27.4 | 45.1 | 0.00 | 0.00 | 0.00 | 43 | 1014.8 |
| 20260506173815 | 15 | 146 | 25.7 | 41.8 | 0.00 | 0.00 | 0.00 | 44 | 1014.7 |
| 20260506173327 | 15 | 161 | 29.0 | 45.1 | 0.00 | 0.00 | 0.00 | 43 | 1014.8 |
| 20260506172818 | 15 | 165 | 24.1 | 51.5 | 0.00 | 0.00 | 0.00 | 45 | 1014.8 |
| 20260506172350 | 15 | 209 | 29.0 | 51.5 | 0.00 | 0.00 | 0.00 | 44 | 1014.7 |
| 20260506171826 | 15 | 198 | 25.7 | 51.5 | 0.00 | 0.00 | 0.00 | 45 | 1014.9 |
| 20260506171316 | 14 | 200 | 24.1 | 51.5 | 0.00 | 0.00 | 0.00 | 46 | 1015.0 |
| 20260506170828 | 14 | 149 | 30.6 | 43.5 | 0.00 | 0.00 | 0.00 | 45 | 1014.9 |
| 20260506170341 | 14 | 155 | 27.4 | 48.3 | 0.00 | 0.00 | 0.00 | 46 | 1015.0 |
| 20260506165833 | 14 | 168 | 27.4 | 45.1 | 0.00 | 0.00 | 0.00 | 46 | 1014.9 |
| 20260506165325 | 13 | 140 | 29.0 | 46.7 | 0.00 | 0.00 | 0.00 | 47 | 1015.0 |
| 20260506164839 | 13 | 119 | 29.0 | 53.1 | 0.00 | 0.00 | 0.00 | 47 | 1015.0 |
| 20260506164332 | 13 | 211 | 27.4 | 53.1 | 0.00 | 0.00 | 0.00 | 47 | 1015.1 |
| 20260506163845 | 13 | 137 | 30.6 | 48.3 | 0.00 | 0.00 | 0.00 | 48 | 1015.2 |
| 20260506163315 | 13 | 186 | 22.5 | 45.1 | 0.00 | 0.00 | 0.00 | 49 | 1015.2 |
| 20260506162828 | 13 | 202 | 24.1 | 46.7 | 0.00 | 0.00 | 0.00 | 50 | 1015.1 |
| 20260506162324 | 13 | 165 | 27.4 | 53.1 | 0.00 | 0.00 | 0.00 | 50 | 1015.0 |
| 20260506161835 | 13 | 129 | 24.1 | 53.1 | 0.00 | 0.00 | 0.00 | 51 | 1015.3 |
| 20260506161326 | 13 | 159 | 27.4 | 49.9 | 0.00 | 0.00 | 0.00 | 52 | 1015.2 |
| 20260506160819 | 12 | 155 | 30.6 | 45.1 | 0.00 | 0.00 | 0.00 | 52 | 1015.0 |
| 20260506160329 | 12 | 172 | 32.2 | 49.9 | 0.00 | 0.00 | 0.00 | 52 | 1015.0 |